• In Österreich
  • Länderverzeichnis
  • Für 7 Tage
  • Wassertemperatur
  • Satellitenkarten
  • Wetterkarte
  • News
  • Widgets
  • user-avatar
    Anmelden

    Stündliche Wetter Chipinge

    Heute, 14 August, Dienstag

    Zeit Temperatur Niederschläge Wind Luftdruck Luftfeuchtigkeit
    00:00 +17°C° 0 mm 2 m/S 675 mmHg 56%
    01:00 +17°C° 0 mm 2 m/S 675 mmHg 59%
    02:00 +16°C° 0 mm 2 m/S 675 mmHg 61%
    03:00 +16°C° 0 mm 2 m/S 675 mmHg 62%
    04:00 +15°C° 0 mm 2 m/S 674 mmHg 63%
    05:00 +15°C° 0 mm 2 m/S 674 mmHg 64%
    06:00 +18°C° 0 mm 1 m/S 675 mmHg 57%
    07:00 +20°C° 0 mm 1 m/S 676 mmHg 51%
    08:00 +22°C° 0 mm 1 m/S 677 mmHg 45%
    09:00 +24°C° 0 mm 1 m/S 677 mmHg 37%
    10:00 +27°C° 0 mm 2 m/S 678 mmHg 29%
    11:00 +30°C° 0 mm 2 m/S 678 mmHg 22%
    12:00 +30°C° 0 mm 2 m/S 678 mmHg 20%
    13:00 +31°C° 0 mm 2 m/S 677 mmHg 19%
    14:00 +30°C° 0 mm 2 m/S 677 mmHg 22%
    15:00 +29°C° 0 mm 2 m/S 677 mmHg 23%
    16:00 +28°C° 0 mm 2 m/S 676 mmHg 25%
    17:00 +27°C° 0 mm 2 m/S 676 mmHg 26%
    18:00 +25°C° 0 mm 1 m/S 676 mmHg 30%
    19:00 +23°C° 0 mm 1 m/S 675 mmHg 34%
    20:00 +21°C° 0 mm 1 m/S 675 mmHg 38%
    21:00 +20°C° 0 mm 1 m/S 675 mmHg 40%
    22:00 +20°C° 0 mm 1 m/S 675 mmHg 42%
    23:00 +19°C° 0 mm 1 m/S 675 mmHg 44%

    Morgen, 15 August, Mittwoch

    Zeit Temperatur Niederschläge Wind Luftdruck Luftfeuchtigkeit
    00:00 +19°C° 0 mm 1 m/S 675 mmHg 46%
    01:00 +18°C° 0 mm 1 m/S 675 mmHg 48%
    02:00 +18°C° 0 mm 1 m/S 675 mmHg 50%
    03:00 +16°C° 0 mm 1 m/S 675 mmHg 52%
    04:00 +16°C° 0 mm 1 m/S 675 mmHg 54%
    05:00 +16°C° 0 mm 1 m/S 674 mmHg 56%
    06:00 +18°C° 0 mm 1 m/S 675 mmHg 51%
    07:00 +20°C° 0 mm 1 m/S 676 mmHg 47%
    08:00 +22°C° 0 mm 1 m/S 677 mmHg 43%
    09:00 +25°C° 0 mm 2 m/S 677 mmHg 36%
    10:00 +27°C° 0 mm 2 m/S 678 mmHg 30%
    11:00 +30°C° 0 mm 2 m/S 678 mmHg 23%
    12:00 +31°C° 0 mm 2 m/S 678 mmHg 21%
    13:00 +31°C° 0 mm 2 m/S 677 mmHg 20%
    14:00 +32°C° 0 mm 2 m/S 676 mmHg 18%
    15:00 +31°C° 0 mm 2 m/S 676 mmHg 20%
    16:00 +29°C° 0 mm 2 m/S 675 mmHg 22%
    17:00 +28°C° 0 mm 2 m/S 675 mmHg 24%
    18:00 +26°C° 0 mm 2 m/S 675 mmHg 28%
    19:00 +24°C° 0 mm 2 m/S 675 mmHg 33%
    20:00 +21°C° 0 mm 2 m/S 675 mmHg 38%
    21:00 +20°C° 0 mm 2 m/S 675 mmHg 42%
    22:00 +19°C° 0 mm 2 m/S 675 mmHg 45%
    23:00 +18°C° 0 mm 2 m/S 675 mmHg 49%

    übermorgen, 16 August, Donnerstag

    Zeit Temperatur Niederschläge Wind Luftdruck Luftfeuchtigkeit
    00:00 +18°C° 0 mm 2 m/S 675 mmHg 52%
    01:00 +18°C° 0 mm 1 m/S 675 mmHg 54%
    02:00 +18°C° 0 mm 1 m/S 674 mmHg 57%
    03:00 +18°C° 0 mm 1 m/S 674 mmHg 57%
    04:00 +16°C° 0 mm 1 m/S 674 mmHg 57%
    05:00 +16°C° 0 mm 1 m/S 674 mmHg 57%
    06:00 +19°C° 0 mm 1 m/S 675 mmHg 52%
    07:00 +21°C° 0 mm 1 m/S 675 mmHg 46%
    08:00 +23°C° 0 mm 1 m/S 676 mmHg 40%
    09:00 +26°C° 0 mm 1 m/S 677 mmHg 33%
    10:00 +29°C° 0 mm 1 m/S 677 mmHg 26%
    11:00 +32°C° 0 mm 1 m/S 678 mmHg 19%
    12:00 +32°C° 0 mm 2 m/S 677 mmHg 18%
    13:00 +34°C° 0 mm 2 m/S 676 mmHg 16%
    14:00 +34°C° 0 mm 2 m/S 676 mmHg 14%
    15:00 +32°C° 0 mm 2 m/S 675 mmHg 16%
    16:00 +30°C° 0 mm 2 m/S 675 mmHg 18%
    17:00 +29°C° 0 mm 2 m/S 674 mmHg 19%
    18:00 +27°C° 0 mm 2 m/S 674 mmHg 24%
    19:00 +24°C° 0 mm 2 m/S 674 mmHg 28%
    20:00 +21°C° 0 mm 2 m/S 674 mmHg 32%
    21:00 +20°C° 0 mm 2 m/S 674 mmHg 36%
    22:00 +19°C° 0 mm 2 m/S 674 mmHg 40%
    23:00 +18°C° 0 mm 2 m/S 674 mmHg 44%

    17 August, Freitag

    Zeit Temperatur Niederschläge Wind Luftdruck Luftfeuchtigkeit
    00:00 +18°C° 0 mm 2 m/S 674 mmHg 46%
    01:00 +17°C° 0 mm 2 m/S 673 mmHg 48%
    02:00 +17°C° 0 mm 2 m/S 673 mmHg 51%
    03:00 +18°C° 0 mm 1 m/S 673 mmHg 50%
    04:00 +16°C° 0 mm 1 m/S 673 mmHg 50%
    05:00 +16°C° 0 mm 1 m/S 672 mmHg 50%
    06:00 +19°C° 0 mm 1 m/S 673 mmHg 44%
    07:00 +21°C° 0 mm 1 m/S 674 mmHg 39%
    08:00 +22°C° 0 mm 1 m/S 675 mmHg 33%
    09:00 +25°C° 0 mm 1 m/S 675 mmHg 28%
    10:00 +28°C° 0 mm 1 m/S 676 mmHg 22%
    11:00 +31°C° 0 mm 2 m/S 676 mmHg 17%
    12:00 +32°C° 0 mm 2 m/S 675 mmHg 15%
    13:00 +33°C° 0 mm 1 m/S 675 mmHg 14%
    14:00 +34°C° 0 mm 1 m/S 674 mmHg 13%
    15:00 +32°C° 0 mm 1 m/S 674 mmHg 14%
    16:00 +31°C° 0 mm 2 m/S 673 mmHg 16%
    17:00 +29°C° 0 mm 2 m/S 673 mmHg 17%
    18:00 +27°C° 0 mm 2 m/S 673 mmHg 21%
    19:00 +25°C° 0 mm 2 m/S 673 mmHg 25%
    20:00 +23°C° 0 mm 2 m/S 673 mmHg 28%
    21:00 +21°C° 0 mm 2 m/S 673 mmHg 31%
    22:00 +20°C° 0 mm 2 m/S 673 mmHg 33%
    23:00 +19°C° 0 mm 2 m/S 673 mmHg 35%

    18 August, Samstag

    Zeit Temperatur Niederschläge Wind Luftdruck Luftfeuchtigkeit
    00:00 +20°C° 0 mm 1 m/S 672 mmHg 37%
    01:00 +20°C° 0 mm 1 m/S 672 mmHg 39%
    02:00 +19°C° 0 mm 1 m/S 672 mmHg 41%
    03:00 +19°C° 0 mm 1 m/S 672 mmHg 43%
    04:00 +18°C° 0 mm 1 m/S 672 mmHg 45%
    05:00 +17°C° 0 mm 2 m/S 672 mmHg 47%
    06:00 +18°C° 0 mm 2 m/S 674 mmHg 52%
    07:00 +18°C° 0 mm 2 m/S 675 mmHg 57%
    08:00 +19°C° 0 mm 2 m/S 676 mmHg 62%
    09:00 +20°C° 0 mm 2 m/S 676 mmHg 60%
    10:00 +21°C° 0 mm 2 m/S 676 mmHg 59%
    11:00 +22°C° 0 mm 3 m/S 677 mmHg 57%
    12:00 +24°C° 0 mm 3 m/S 676 mmHg 55%
    13:00 +24°C° 0 mm 3 m/S 676 mmHg 53%
    14:00 +25°C° 0 mm 3 m/S 676 mmHg 51%
    15:00 +22°C° 0 mm 3 m/S 675 mmHg 56%
    16:00 +21°C° 0 mm 3 m/S 675 mmHg 61%
    17:00 +20°C° 0 mm 3 m/S 675 mmHg 67%
    18:00 +19°C° 0 mm 2 m/S 675 mmHg 71%
    19:00 +18°C° 0 mm 2 m/S 676 mmHg 75%
    20:00 +17°C° 0 mm 2 m/S 676 mmHg 79%
    21:00 +18°C° 0 mm 1 m/S 676 mmHg 80%
    22:00 +18°C° 0 mm 1 m/S 676 mmHg 80%
    23:00 +18°C° 0 mm 1 m/S 676 mmHg 81%

    19 August, Sonntag

    Zeit Temperatur Niederschläge Wind Luftdruck Luftfeuchtigkeit
    00:00 +16°C° 0 mm 1 m/S 675 mmHg 83%
    01:00 +16°C° 0 mm 1 m/S 675 mmHg 85%
    02:00 +16°C° 0 mm 1 m/S 674 mmHg 87%
    03:00 +16°C° 0,1 mm 1 m/S 674 mmHg 87%
    04:00 +16°C° 0,1 mm 1 m/S 674 mmHg 88%
    05:00 +15°C° 0,1 mm 0 m/S 674 mmHg 88%
    06:00 +15°C° 0 mm 0 m/S 675 mmHg 85%
    07:00 +18°C° 0 mm 1 m/S 675 mmHg 82%
    08:00 +19°C° 0 mm 1 m/S 676 mmHg 79%
    09:00 +21°C° 0 mm 1 m/S 676 mmHg 70%
    10:00 +23°C° 0 mm 1 m/S 676 mmHg 61%
    11:00 +24°C° 0 mm 1 m/S 676 mmHg 52%
    12:00 +26°C° 0 mm 1 m/S 676 mmHg 46%
    13:00 +27°C° 0 mm 1 m/S 675 mmHg 41%
    14:00 +28°C° 0 mm 2 m/S 675 mmHg 36%
    15:00 +27°C° 0 mm 2 m/S 675 mmHg 38%
    16:00 +26°C° 0 mm 2 m/S 674 mmHg 40%
    17:00 +25°C° 0 mm 2 m/S 674 mmHg 43%
    18:00 +23°C° 0 mm 2 m/S 674 mmHg 49%
    19:00 +21°C° 0 mm 2 m/S 674 mmHg 55%
    20:00 +20°C° 0 mm 1 m/S 674 mmHg 62%
    21:00 +19°C° 0 mm 1 m/S 674 mmHg 64%
    22:00 +18°C° 0 mm 1 m/S 674 mmHg 66%
    23:00 +18°C° 0 mm 1 m/S 674 mmHg 68%
    Mehr zeigen